Погода в Курортном

Россия / Республика Крым     44°59′46″N   34°21′44″E
темп.,
°C
ветер,
м/с
пор.,
м/с
влажн.,
%
обл.,
%
осадки,
мм/ч
давл.,
гПа
погр.,
м
4 августа, ср
ср400:00+22ююв117278 0.0 101513
03:00+21с117443 0.0 101620
06:00+20в22868 0.0 101533
09:00+25св325721 0.0 1016728
12:00+30ссв333922 0.2 10152144
15:00+25св5861100 0.8 1016453
18:00+27всв44565 0.8 1015755
21:00+22в23720 0.8 101640
5 августа, чт
чт500:00+21юв227941 0.0 101621
03:00+20юв1179100 0.0 101613
06:00+20юв22780 0.0 101527
09:00+27ссв01505 0.0 1015860
12:00+31ссз22345 0.0 10142423
15:00+33зсз332971 0.0 10122770
18:00+28з444954 0.0 1012686
21:00+22зюз11725 0.0 101215
6 августа, пт
пт600:00+22юв22660 0.0 101020
03:00+21ююв22570 0.0 100920
06:00+21ююв22590 0.0 100912
09:00+29вюв45304 0.0 1006758
12:00+33ююв33230 0.0 10051861
15:00+35з22200 0.0 10042832
18:00+29зсз66410 0.0 1004749
21:00+23ююз46690 0.0 1005125
7 августа, сб
сб700:00+22ююз22671 0.0 100523
03:00+21юв2274100 0.0 100414
06:00+20зсз1277100 0.0 100526
09:00+26ссз2347100 0.0 1006477
12:00+32ссз4531100 0.0 10051533
15:00+34с6527100 0.0 10052798
18:00+32с7629100 0.0 10062388
21:00+25с3545100 0.1 100888
8 августа, вс
вс800:00+21ю116726 1.1 100911
03:00+21ссв0174100 1.1 101011
06:00+20ссз0184100 0.0 101212
09:00+24с3468100 0.0 1012463
12:00+31ссз453899 0.0 10121458
15:00+33ссз652888 0.0 10112422
18:00+31ссз553014 0.0 10122071
21:00+23юз336094 0.0 101446